Regional Weather Roundup
Issued by NWS

Home | Current Version | Previous Version | Text Only | Print | Product List | Glossary On
Versions: 1 2 3 4 5 6 7 8 9 10 11 12 13 14 15 16 17 18 19 20 21 22 23 24 25 26 27 28 29 30 31 32 33 34 35 36 37 38 39 40 41 42 43 44 45 46 47 48 49 50
000
ASUS43 KDTX 011610
RWRMI
MICHIGAN HOURLY REGIONAL WEATHER ROUNDUP
NATIONAL WEATHER SERVICE DETROIT/PONTIAC MI
1200 PM EDT WED OCT 01 2014

NOTE: "FAIR" INDICATES FEW OR NO CLOUDS BELOW 12,000 FEET WITH NO
SIGNIFICANT WEATHER AND/OR OBSTRUCTION TO VISIBILITY.

MIZ047>049-052>055-059>063-066>070-074>076-081>083-011700-
SOUTHEAST LOWER MICHIGAN

CITY           SKY/WX    TMP DP  RH WIND       PRES   REMARKS
ADRIAN         MOSUNNY   61  49  64 SW5       30.08S
ALMA           CLOUDY    55  54  97 SE5       30.09R FOG
ANN ARBOR      MOSUNNY   61  48  62 S5        30.07S
BAD AXE        CLOUDY    61  61 100 CALM      30.08F FOG
CARO           CLOUDY    61  59  92 SE5       30.07S FOG
DETROIT CITY   PTSUNNY   63  50  62 SE5       30.09S
DETROIT        PTSUNNY   63  50  62 CALM      30.07S
FLINT          CLOUDY    62  52  69 S6        30.08S
GROSSE ILE     CLOUDY    63  52  67 CALM      30.06S
HILLSDALE      PTSUNNY   59  49  68 CALM      30.07R
HOWELL         PTSUNNY   59  52  78 SE7       30.08S

CITY           SKY/WX    TMP DP  RH WIND       PRES   REMARKS
JACKSON        PTSUNNY   60  49  66 SE7       30.07S
LAMBERTVILLE   CLOUDY    61  52  72 CALM      30.07F
LANSING        CLOUDY    56  50  80 SE6       30.08S
LAPEER         PTSUNNY   60  55  85 CALM      30.08S
MASON          CLOUDY    54  52  94 SE3       30.08S
MONROE         PTSUNNY   64  50  59 CALM      30.05S
MT. CLEMENS    PTSUNNY   64  56  74 CALM      30.05S
PONTIAC        PTSUNNY   61  50  67 S7        30.07S
PORT HOPE        N/A     61  59  93 E6        30.07S
PORT HURON     PTSUNNY   61  61 100 CALM      30.08S FOG
TRI CITIES     CLOUDY    58  56  93 S9        30.09S
TROY           CLOUDY    63  51  63 S3        30.09S
SAGINAW HB     CLOUDY    57  57 100 S3        30.07S FOG
$$
MIZ043>046-050>051-056>058-064>065-071>073-077>080-011700-
SOUTHWEST LOWER MICHIGAN

CITY           SKY/WX    TMP DP  RH WIND       PRES   REMARKS
BATTLE CREEK   CLOUDY    57  48  72 SE3       30.08S
BENTON HARBOR  CLOUDY    58  49  72 E8        30.05S
BIG RAPIDS     CLOUDY    55  55 100 SE8       30.07R
COLDWATER      CLOUDY    59  50  70 SW5       30.08R
FREMONT        CLOUDY    57  51  80 CALM      30.06S
GRAND RAPIDS   CLOUDY    58  52  80 SE7       30.07S
IONIA          CLOUDY    55  53  95 SE3       30.08R
KALAMAZOO      CLOUDY    57  48  72 S5        30.08R
LUDINGTON      CLOUDY    57  51  81 SE6       30.06S
MARSHALL       CLOUDY    58  47  68 S3        30.07R
MOUNT PLEASANT CLOUDY    56  56  97 E6        30.07S FOG
MUSKEGON       CLOUDY    57  49  74 S6        30.07S HAZE
SOUTH HAVEN    CLOUDY    57  50  78 SE5       30.06F
$$
MIZ016>042-011700-
NORTHERN LOWER MICHIGAN

CITY           SKY/WX    TMP DP  RH WIND       PRES   REMARKS
ALPENA         CLOUDY    55  55 100 NE6       30.10S FOG
BEAVER ISLAND  CLOUDY    56  54  91 SE5       30.07S
BELLAIRE       CLOUDY    58  52  80 SE9       30.08S
CADILLAC       CLOUDY    57  55  92 E9        30.06R
CHARLEVOIX     CLOUDY    56  54  92 E7        30.10F
FRANKFORT      CLOUDY    55  51  83 CALM      30.07S
GAYLORD        CLOUDY    53  52  96 SE6       30.09R
GRAYLING       CLOUDY    56  56  99 S5        30.10R FOG
HARBOR SPRINGS CLOUDY    56  52  86 E3        30.09R
HOUGHTON LAKE  CLOUDY    56  53  90 E6        30.09R
OSCODA         CLOUDY    57  57 100 CALM      30.08S FOG
PELLSTON       CLOUDY    56  52  86 S7        30.09R
TRAVERSE CITY  CLOUDY    58  52  80 E7        30.06S
$$
MIZ007>008-015-011700-
EASTERN UPPER MICHIGAN

CITY           SKY/WX    TMP DP  RH WIND       PRES   REMARKS
MACKINAC ISLAN CLOUDY    55  54  94 SE8       30.09R
NEWBERRY       CLOUDY    55  53  91 S12       30.06S
S. S. MARIE    CLOUDY    53  51  93 VRB5      30.09R FOG
$$
MIZ004>006-011>014-085-011700-
CENTRAL UPPER MICHIGAN

CITY           SKY/WX    TMP DP  RH WIND       PRES   REMARKS
MANISTIQUE     CLOUDY    56  53  90 S8        30.05S
SAWYER-GWINN   CLOUDY    52  48  87 S14G20    30.01F FOG
$$
MIZ001>003-009>011-084-011700-
WESTERN UPPER MICHIGAN

CITY           SKY/WX    TMP DP  RH WIND       PRES   REMARKS
IRON MOUNTAIN  CLOUDY    51  49  92 S8        30.00F FOG
HOUGHTON       CLOUDY    54  47  77 SE12      29.94F
$$

ABBREVIATIONS USED IN REMARKS
   TC - TEMPERATURE IN CELSIUS
  WCI - WIND CHILL INDEX
   HX - HEAT INDEX
  VSB - VISIBILITY



USA.gov is the U.S. government's official web portal to all federal, state and local government web resources and services.